Location: Catllar
(42.6335°N, 2.4218°E)
Time: 08:49:11
(UTC+00:00)

Daily predictions for brighter satellites

Satellite Brightness Start Highest point End
(mag) Time Altitude Azimuth Time Altitude Azimuth Time Altitude Azimuth
Cosmos 1825 Rocket 3.6 17:11:05 10° N 17:15:33 86° E 17:19:57 10° S
Helios 1A Rocket 4.3 17:15:16 10° ESE 17:18:10 19° ENE 17:21:05 10° NNE
ERS-2 2.1 17:15:10 10° NNE 17:18:48 62° ESE 17:22:24 10° S
YAOGAN 1 4.1 17:18:05 10° E 17:20:37 15° ENE 17:23:11 10° NNE
BREEZE-M TANK 3.6 17:09:48 10° W 17:21:14 70° N 17:24:56 10° E
Atlas Centaur 2 4.3 17:14:36 10° SW 17:21:25 31° SSE 17:28:38 10° ESE
Meteor 2-21 Rocket 4.4 17:17:08 10° N 17:23:20 78° E 17:29:26 10° SSE
NOAA 11 4.2 17:19:57 10° SSE 17:25:16 59° ENE 17:30:37 10° N
CZ-2D R/B 4.4 17:23:06 10° ESE 17:26:06 22° ENE 17:29:06 10° NNE
Cosmos 44 3.9 17:21:46 10° SW 17:26:08 52° NW 17:30:49 10° NNE
Okean O Rocket 1.8 17:22:50 10° S 17:27:11 76° WSW 17:31:33 10° NNW
Cosmos 2228 3.4 17:23:19 10° SSW 17:27:32 68° W 17:31:49 10° N
Cosmos 1340 3.1 17:24:12 10° N 17:27:48 40° ENE 17:31:22 10° SSE
Cosmos 1726 Rocket 3.5 17:24:01 10° S 17:28:22 89° E 17:32:46 10° N
CZ-4 R/B 2.7 17:26:14 10° ESE 17:28:58 19° ENE 17:31:42 10° NNE
SL-4 R/B 3.4 17:31:14 10° NW 17:34:00 21° N 17:36:33 12° ENE
Aureole 3 2.7 17:31:08 10° S 17:34:12 56° E 17:37:07 10° NNE
CORIOLIS 4.3 17:29:01 10° SSE 17:34:21 81° WSW 17:39:45 10° NNW
Cosmos 1346 Rocket 3.8 17:32:12 10° NNE 17:35:33 25° ENE 17:38:54 10° SE
Cosmos 1980 Rocket 3.5 17:32:10 10° SE 17:35:55 19° E 17:39:22 11° ENE
Cosmos 2058 3.9 17:32:57 10° NNE 17:36:23 25° ENE 17:39:47 10° SE
Cosmos 2297 Rocket 2.2 17:33:39 10° NNW 17:39:20 69° ENE 17:44:57 10° SSE
Timation 2 Rocket 4.4 17:34:21 10° NNW 17:41:00 78° WSW 17:47:50 10° SSE
In-Cosmos 22 Rocket 4.2 17:35:56 10° N 17:41:15 58° ENE 17:46:40 10° SSE
PSLV R/B 4.4 17:37:28 10° NNE 17:41:23 38° E 17:45:13 10° SSE
CZ-2C R/B 4.0 17:37:36 10° SE 17:42:37 32° ENE 17:47:30 10° N
Cosmos 1315 Rocket 3.7 17:41:20 10° SSE 17:44:43 28° E 17:48:09 10° NNE
Cosmos 1553 Rocket 4.0 17:42:19 10° S 17:48:34 63° E 17:54:45 10° NNE
Cosmos 220 Rocket 4.2 17:46:04 10° S 17:50:16 49° ESE 17:54:32 10° NNE
Meteor 2-10 Rocket 3.7 17:49:20 10° S 17:54:27 50° E 17:59:24 10° NNE
BREEZE-M R/B 4.1 17:50:50 10° NW 17:54:30 40° NNE 17:59:00 18° ENE
USA 305 3.5 17:51:51 10° NW 17:55:57 40° NNE 17:58:11 22° E
Cosmos 1455 2.7 17:53:05 10° SSE 17:56:34 36° E 18:00:05 10° NNE
SKYMED 2 3.5 17:53:07 10° NNE 17:57:28 75° ESE 18:01:48 10° S
SeaSat 1 4.0 18:00:38 17° NE 18:01:10 17° NE 18:04:17 10° N
USA 306 3.4 17:58:21 10° NW 18:02:28 43° NNE 18:04:25 26° E
H-2A R/B 2.8 17:58:19 10° SE 18:03:05 32° ENE 18:07:53 10° N
Okean-O 2.7 18:00:06 10° SSE 18:04:23 53° ENE 18:08:43 10° N
Cosmos 2278 4.2 18:04:00 10° S 18:09:09 37° ESE 18:12:45 18° NE
NOSS 3-3 (A) 3.8 18:04:13 10° SSW 18:09:56 76° ESE 18:16:10 11° NE
MOS 1 Rocket 3.9 18:05:35 10° NNE 18:09:59 35° E 18:14:36 10° SSE
NOSS 3-3 (C) 3.8 18:04:20 10° SSW 18:10:03 75° ESE 18:16:14 11° NE
Aureole 3 Rocket 3.9 18:06:14 10° SSW 18:10:11 59° WNW 18:15:42 10° N
SL-08 R/B 4.4 18:04:19 10° N 18:10:31 89° E 18:16:37 10° S
Cosmos 2219 3.8 18:07:12 10° NNW 18:12:53 62° WSW 18:18:31 10° S
Cosmos 1745 Rocket 3.9 18:10:44 10° N 18:17:03 73° E 18:23:22 10° SSE
Cosmos 44 Rocket 3.3 18:12:57 10° SSW 18:17:33 54° ESE 18:19:58 27° NE
Lacrosse 5 3.7 18:15:16 10° NNW 18:18:33 17° N 18:20:11 15° NNE
GEOS 3 Rocket 4.5 18:17:20 27° ENE 18:18:54 32° NE 18:23:38 10° NNW
ARGOS 3.8 18:17:21 28° E 18:18:56 33° ENE 18:23:45 10° N
Cosmos 1408 2.4 18:16:23 10° N 18:20:04 75° E 18:23:44 10° SSE
Cosmos 2082 3.7 18:14:28 10° NNW 18:20:12 67° ENE 18:25:52 10° SSE
Cosmos 1656 4.5 18:16:54 10° SW 18:22:19 52° WNW 18:27:50 10° NNE
ATLAS 2AS CENTAUR R/B 3.6 18:17:27 10° NNW 18:24:04 32° NE 18:26:17 27° ENE
Cosmos 968 Rocket 3.7 18:20:19 10° NNW 18:25:30 70° WSW 18:30:37 10° S
Cosmos 1386 Rocket 4.4 18:19:24 10° N 18:25:50 80° E 18:32:08 10° S
Cosmos 1689 Rocket 3.5 18:23:23 10° N 18:26:06 37° WNW 18:28:47 10° SW
Cosmos 2369 3.6 18:27:47 10° SSW 18:33:30 89° SE 18:39:12 10° NNE
Cosmos 1076 Rocket 3.3 18:30:13 10° N 18:34:29 81° E 18:38:45 10° S
Cosmos 1939 Rocket 4.4 18:31:47 10° SSW 18:35:28 37° W 18:39:08 10° NNW
Cosmos 1892 4.0 18:32:59 10° NNW 18:36:40 42° W 18:40:19 10° SSW
CSL-04 Rocket 3.6 18:34:43 10° SSE 18:40:12 67° ENE 18:45:41 10° N
Cosmos 2227 Rocket 3.3 18:38:23 10° NW 18:43:44 44° WSW 18:49:03 10° S
COSMO-SKYMED 1 4.3 18:41:29 10° N 18:45:24 33° WNW 18:49:17 10° SW
Cosmos 2263 Rocket 3.1 18:40:55 10° N 18:45:07 31° NE 18:45:07 31° NE
USA 307 2.7 18:42:02 10° NW 18:46:20 83° NE 18:46:28 81° E
Cosmos 1709 Rocket 3.9 18:40:10 10° N 18:46:34 70° E 18:52:54 10° SSE
CZ-4C R/B 3.9 18:43:06 10° NNW 18:48:54 27° NE 18:49:38 26° NE
OAO 2 Rocket 4.2 18:44:56 10° WSW 18:49:24 34° S 18:50:07 32° SSE
USA 308 2.8 18:47:01 10° NW 18:51:15 88° NW 18:51:15 88° NW
Cosmos 1825 2.4 18:48:28 10° NNW 18:52:14 68° W 18:52:23 67° WSW
Helios 1A Rocket 4.4 18:49:14 10° SSW 18:53:04 37° W 18:56:53 10° NNW
Cosmos 1697 Rocket 3.4 18:50:18 10° SW 18:55:45 52° WNW 19:01:16 10° NNE
YAOGAN 1 3.3 18:52:04 10° S 18:56:17 53° W 19:00:33 10° NNW
Cosmos 883 Rocket 4.4 18:52:18 10° S 18:58:28 85° W 19:04:38 10° N
GPS 2-04 Rocket1 4.4 18:55:59 10° SW 18:58:37 26° SSW 18:58:37 26° SSW
Cosmos 1812 Rocket 4.4 18:59:14 10° SSW 19:03:30 48° WNW 19:07:45 10° N
CZ-4 R/B 3.0 19:00:16 10° SSW 19:03:47 32° W 19:07:18 10° NNW
Milstar 3 4.2 19:02:44 10° WSW 19:07:59 24° S 19:09:47 21° SSE
Cosmos 2315 Rocket 3.9 19:03:05 10° S 19:09:17 86° W 19:15:31 10° N
Atlas Centaur 2 4.0 19:02:59 10° WSW 19:10:22 35° S 19:12:40 30° SSE
SL-4 R/B 3.8 19:10:32 10° NW 19:12:08 24° NW 19:12:08 24° NW
Cosmos 1980 Rocket 2.5 19:13:46 10° SW 19:19:20 63° WNW 19:21:13 41° N
SeaSat 1 3.9 19:40:26 32° NNW 19:40:26 32° NNW 19:43:04 10° NNW
H-2A R/B 3.6 19:37:27 10° SSW 19:42:23 36° W 19:47:24 10° NNW
NOSS 3-4 (A) 3.9 19:46:33 10° NW 19:53:08 75° WNW 19:53:08 75° WNW
NOSS 3-4 (C) 3.9 19:46:39 10° NW 19:53:11 75° WNW 19:53:11 75° WNW
USA 215 4.1 19:57:31 39° N 19:57:31 39° N 20:02:05 10° NW
Lacrosse 5 4.2 19:58:06 10° NW 19:59:23 17° NNW 19:59:23 17° NNW
ATLAS 2AS CENTAUR R/B 3.4 20:08:21 10° NW 20:13:44 50° NW 20:13:44 50° NW
Cosmos 2263 Rocket 4.3 20:24:43 10° NW 20:26:50 22° NW 20:26:50 22° NW
CZ-4C R/B 4.1 20:31:04 10° NW 20:34:49 35° NNW 20:34:49 35° NNW
